Prescott, AZ

10:14 AM MST on February 26, 2017 (GMT -0700)
Love

Weather History for KPRC - December, 2013

Change the Weather History Date:

Thursday, December 5, 2013

  Actual Average Record
Temperature  
Mean Temperature 28 °F 40 °F  
Max Temperature 38 °F 53 °F 71 °F (1989)
Min Temperature 17 °F 26 °F 11 °F (1948)
Degree Days  
Heating Degree Days 37    
Month to date heating degree days 120  
Since 1 July heating degree days 1026  
Cooling Degree Days 0    
Month to date cooling degree days 0  
Year to date cooling degree days 1127  
Moisture  
Dew Point 13 °F    
Average Humidity 57    
Maximum Humidity 80    
Minimum Humidity 29    
Precipitation  
Precipitation 0.00 in 0.03 in 0.46 in (1994)
Month to date precipitation 0.13 0.15  
Year to date precipitation 12.76 13.16  
Sea Level Pressure  
Sea Level Pressure 29.93 in    
Wind  
Wind Speed 4 mph (WSW)    
Max Wind Speed 14 mph    
Max Gust Speed 22 mph    
Visibility 10 miles    
Events      
T = Trace of Precipitation, MM = Missing Value Source: NWS Daily Summary

Daily Weather History Graph

Daily Weather History Graph

Search for Another Location

Airport or City:

Trip Planner

Search our weather history database for the weather conditions in past years. The results will help you decide how hot, cold, wet, or windy it might be!

Date:

Astronomy

Dec. 05, 2013 Rise Set
Actual Time 7:22 AM MST 5:18 PM MST
Civil Twilight 6:54 AM MST 5:46 PM MST
Nautical Twilight 6:23 AM MST 6:17 PM MST
Astronomical Twilight 5:52 AM MST 6:48 PM MST
Moon 9:48 AM MST (12/5) 8:39 PM MST (12/5)
Length of Visible Light 10h 52m
Length of Day
9h 56m
Waxing Crescent, 11% of the Moon is Illuminated
Dec 5
Waxing Crescent
Dec 9
First Quarter
Dec 17
Full
Dec 25
Last Quarter
Jan 1
New

Hourly Weather History & Observations

Time (MST) Temp. Windchill Dew Point Humidity Pressure Visibility Wind Dir Wind Speed Gust Speed Precip Events Conditions
12:53 AM 24.1 °F 18.2 °F 16.0 °F 71% 29.86 in 10.0 mi SW 4.6 mph - N/A   Clear
1:53 AM 23.0 °F 15.8 °F 15.1 °F 72% 29.86 in 10.0 mi West 5.8 mph - N/A   Clear
2:53 AM 21.0 °F 16.2 °F 14.0 °F 74% 29.86 in 10.0 mi SSW 3.5 mph - N/A   Clear
3:53 AM 21.0 °F 13.4 °F 12.9 °F 71% 29.87 in 10.0 mi West 5.8 mph - N/A   Clear
4:53 AM 19.9 °F 14.9 °F 12.0 °F 71% 29.88 in 10.0 mi West 3.5 mph - N/A   Clear
5:53 AM 19.0 °F - 12.0 °F 74% 29.89 in 10.0 mi Calm Calm - N/A   Clear
6:53 AM 17.1 °F - 12.9 °F 84% 29.91 in 10.0 mi Calm Calm - N/A   Clear
7:53 AM 19.0 °F - 12.9 °F 77% 29.92 in 10.0 mi Calm Calm - N/A   Clear
8:53 AM 24.1 °F - 15.1 °F 69% 29.93 in 10.0 mi Calm Calm - N/A   Clear
9:53 AM 28.0 °F - 16.0 °F 61% 29.94 in 10.0 mi Calm Calm - N/A   Partly Cloudy
10:53 AM 33.1 °F - 17.1 °F 52% 29.93 in 10.0 mi Calm Calm - N/A   Partly Cloudy
11:53 AM 35.1 °F 32.2 °F 14.0 °F 42% 29.92 in 10.0 mi NW 3.5 mph - N/A   Partly Cloudy
12:53 PM 36.0 °F 32.1 °F 10.9 °F 36% 29.89 in 10.0 mi SSW 4.6 mph - N/A   Clear
1:53 PM 37.0 °F 31.0 °F 8.1 °F 30% 29.88 in 10.0 mi SW 8.1 mph - N/A   Clear
2:20 PM 37.4 °F 29.8 °F 8.6 °F 30% 29.87 in 10.0 mi SSW 11.5 mph - N/A   Clear
2:53 PM 37.0 °F 30.4 °F 9.0 °F 31% 29.89 in 10.0 mi SW 9.2 mph 16.1 mph N/A   Clear
3:53 PM 36.0 °F 29.6 °F 10.9 °F 36% 29.89 in 10.0 mi West 8.1 mph - N/A   Clear
4:53 PM 33.1 °F 25.5 °F 12.0 °F 42% 29.92 in 10.0 mi WSW 9.2 mph - N/A   Clear
5:53 PM 30.0 °F 21.1 °F 12.9 °F 49% 29.95 in 10.0 mi WSW 10.4 mph - N/A   Clear
6:53 PM 28.0 °F 20.8 °F 12.0 °F 51% 29.98 in 10.0 mi South 6.9 mph - N/A   Clear
7:53 PM 26.1 °F 18.4 °F 12.0 °F 55% 29.99 in 10.0 mi SSW 6.9 mph - N/A   Clear
8:53 PM 24.1 °F 18.2 °F 12.0 °F 60% 30.02 in 10.0 mi WSW 4.6 mph - N/A   Clear
9:53 PM 25.0 °F - 10.9 °F 55% 30.01 in 10.0 mi Calm Calm - N/A   Clear
10:53 PM 21.9 °F - 12.0 °F 66% 30.03 in 10.0 mi Calm Calm - N/A   Clear
11:53 PM 18.0 °F - 12.0 °F 78% 30.05 in 10.0 mi Calm Calm - N/A   Clear